KK7N Weather Reports


time (UTC)temp
C
wind
direction
speed
KPH
gust
KPH
rain 1hr
cm
rain 24hr
cm
rain mn
cm
humidity
%
barometer
mb
20260506001546 17 319 0.0 6.4 0.00 0.00 0.00 73 1015.5
20260506000048 17 0 0.0 8.0 0.00 0.00 0.00 69 1015.6
20260505234605 17 0 1.6 11.3 0.00 0.00 0.00 70 1015.8
20260505233043 17 270 4.8 11.3 0.00 0.00 0.00 71 1015.8
20260505231549 17 284 3.2 11.3 0.00 0.00 0.00 71 1015.9
20260505230047 17 322 3.2 14.5 0.00 0.00 0.00 71 1015.9
20260505224548 17 271 6.4 14.5 0.00 0.00 0.00 71 1016.0
20260505223044 17 286 3.2 12.9 0.00 0.00 0.00 71 1016.2
20260505221550 17 0 3.2 8.0 0.00 0.00 0.00 72 1016.0
20260505220051 17 0 0.0 4.8 0.00 0.00 0.00 73 1016.2
20260505214604 17 338 1.6 6.4 0.00 0.00 0.00 71 1016.3
20260505213058 18 0 0.0 6.4 0.00 0.00 0.00 70 1016.3
20260505211549 18 0 0.0 9.7 0.00 0.00 0.00 70 1016.3
20260505210057 18 346 3.2 8.0 0.00 0.00 0.00 69 1016.4
20260505204556 18 61 0.0 8.0 0.00 0.00 0.00 72 1016.4
20260505203054 16 0 0.0 4.8 0.00 0.00 0.00 78 1016.6
20260505201554 16 59 0.0 0.0 0.00 0.00 0.00 79 1016.8
20260505200105 16 0 0.0 1.6 0.00 0.00 0.00 77 1016.7
20260505194559 16 0 0.0 3.2 0.00 0.00 0.00 80 1016.8
20260505193051 15 0 0.0 1.6 0.00 0.00 0.00 79 1016.8
20260505191541 15 0 0.0 4.8 0.00 0.00 0.00 79 1016.8
20260505190056 15 59 0.0 4.8 0.00 0.00 0.00 80 1016.8
20260505184551 15 0 0.0 1.6 0.00 0.00 0.00 80 1016.9
20260505183054 15 252 1.6 6.4 0.00 0.00 0.00 79 1017.0
20260505181542 15 252 3.2 8.0 0.00 0.00 0.00 78 1016.9
20260505174559 15 265 0.0 6.4 0.00 0.00 0.00 78 1016.8
20260505173048 14 252 3.2 8.0 0.00 0.00 0.00 80 1016.7
20260505171547 14 0 0.0 3.2 0.00 0.00 0.00 81 1016.6
20260505170050 13 0 1.6 6.4 0.00 0.00 0.00 82 1016.7
20260505164545 13 214 0.0 4.8 0.00 0.00 0.00 83 1016.6
20260505163044 13 0 0.0 8.0 0.00 0.00 0.00 84 1016.5
20260505161558 13 0 0.0 8.0 0.00 0.00 0.00 85 1016.6
20260505153049 12 0 0.0 6.4 0.00 0.00 0.00 87 1016.4
20260505151548 12 0 0.0 4.8 0.00 0.00 0.00 87 1016.3
20260505124550 12 0 0.0 6.4 0.00 0.00 0.00 86 1015.3
20260505123054 12 0 0.0 6.4 0.00 0.00 0.00 85 1015.3
20260505121543 12 0 0.0 4.8 0.00 0.00 0.00 85 1015.3
20260505120044 12 0 0.0 8.0 0.00 0.00 0.00 84 1015.2
20260505114542 12 211 0.0 4.8 0.00 0.00 0.00 84 1015.2
20260505113056 12 211 0.0 8.0 0.00 0.00 0.00 84 1015.1
20260505111545 12 0 0.0 3.2 0.00 0.00 0.00 84 1015.2
20260505101548 13 215 0.0 9.7 0.00 0.00 0.00 82 1014.6
20260505100050 13 214 1.6 8.0 0.00 0.00 0.00 82 1014.6
20260505094544 13 0 0.0 6.4 0.00 0.00 0.00 81 1014.5
20260505093048 13 218 4.8 9.7 0.00 0.00 0.00 81 1014.5
20260505091559 13 235 4.8 12.9 0.00 0.00 0.00 80 1014.4
20260505090049 13 217 1.6 11.3 0.00 0.00 0.00 79 1014.3
20260505084549 14 218 1.6 11.3 0.00 0.00 0.00 79 1014.1
20260505083046 14 223 4.8 14.5 0.00 0.00 0.00 79 1014.2
20260505081555 14 192 8.0 16.1 0.00 0.00 0.00 78 1014.0
20260505080046 14 216 9.7 17.7 0.00 0.00 0.00 78 1014.0
20260505074542 15 221 4.8 11.3 0.00 0.00 0.00 77 1014.0
20260505073049 15 271 1.6 4.8 0.00 0.00 0.00 76 1013.6
20260505071554 15 0 0.0 6.4 0.00 0.00 0.00 76 1013.4
20260505070050 16 198 3.2 14.5 0.00 0.00 0.00 74 1013.3
20260505064545 16 0 3.2 11.3 0.00 0.00 0.00 73 1013.1
20260505063058 17 216 8.0 14.5 0.00 0.00 0.00 72 1012.9
20260505061610 17 296 0.0 4.8 0.00 0.00 0.00 71 1012.7
20260505060039 18 0 0.0 4.8 0.00 0.00 0.00 70 1012.5
20260505054548 18 296 1.6 8.0 0.00 0.00 0.00 70 1012.4
20260505053046 18 279 8.0 19.3 0.00 0.00 0.00 70 1012.4
20260505051606 18 263 6.4 12.9 0.00 0.00 0.00 75 1012.2
20260505041551 18 0 0.0 1.6 0.00 0.00 0.00 75 1011.4
20260505040045 19 0 0.0 3.2 0.00 0.00 0.00 75 1011.1
20260505034547 19 0 0.0 1.6 0.00 0.00 0.00 72 1010.9
20260505033044 20 0 0.0 0.0 0.00 0.00 0.00 71 1010.8
20260505031552 20 0 0.0 4.8 0.00 0.00 0.00 70 1010.7
20260505030044 20 0 0.0 9.7 0.00 0.00 0.00 68 1010.4
20260505024548 21 0 3.2 16.1 0.00 0.00 0.00 66 1010.2
20260505023048 21 209 0.0 12.9 0.00 0.00 0.00 65 1010.3
20260505021551 22 0 4.8 12.9 0.00 0.00 0.00 62 1010.2
20260505020043 23 222 4.8 12.9 0.00 0.00 0.00 59 1010.2
20260505014543 23 215 8.0 14.5 0.00 0.00 0.00 57 1010.1
20260505013042 23 249 8.0 16.1 0.00 0.00 0.00 56 1010.4
20260505011551 24 242 4.8 14.5 0.00 0.00 0.00 56 1010.6
20260505010057 23 239 4.8 16.1 0.00 0.00 0.00 55 1010.6
20260505004544 23 227 3.2 11.3 0.00 0.00 0.00 57 1010.7
20260505003043 23 217 4.8 14.5 0.00 0.00 0.00 54 1010.8